sat.trackr.live / text

‹ back to catalog

TAURUS-1 (JINNIUZUO 1)

NORAD 44530 · 2019-059C

PAYLOAD ACTIVE UNKNOWN

§ Identity

Operator
Country
PRC
Launch date
2019-09-12
Launch site
TAISC
Launch vehicle
Mass (kg)
RCS (m²)

External: N2YO · Heavens-Above · Gunter

§ Orbital elements

Epoch: 2026-05-25T04:46:05.507904Z

Period
97.84 min
Inclination
98.6403°
Eccentricity
0.0008671
Mean motion
14.71803180 rev/d
Perigee alt
649.2 km
Apogee alt
661.4 km
Semi-major
7,033.5 km
B*
7.7754e-4
RAAN
308.6074°
Arg perigee
33.0158°
Mean anomaly
327.1587°
Rev number
35,526

§ Raw data

TAURUS-1 (JINNIUZUO 1)1 44530U 19059C   26145.19867486  .00004807  00000+0  77754-3 0  99982 44530  98.6403 308.6074 0008671  33.0158 327.1587 14.71803180355265

JSON: /api/v1/satellites/44530 · /tle

For live sub-satellite position, see the globe view (requires WebGL).

§ Visibility from observer

Set your observer location to see the next 7 days of passes ≥ 10°. The values pass through the URL so the page stays shareable.

No JS? Fill the form by hand. The geolocation button needs JavaScript.

§ Radio — SatNOGS DB

ModeDescriptionDownlinkUplink
BPSK Mode U BPSK9k6 TLM 435.840 MHz
FM Mode V/U FM 67.0 PL 436.760 MHz 145.820 MHz

2 transmitters · refreshed weekly from db.satnogs.org